Location: Newark
(25.7507°S, 31.4676°E)
Time: 00:58:31
(UTC+00:00)

Hubble Space Telescope - Pass Details

Date: 22 January 2020
Orbit: 536 x 540 km, 28.5° (Epoch: 20 February)

Event Time Altitude Azimuth Distance (km) Brightness Sun altitude
Rises 18:57:23 0° 297° (WNW) 2,677 4.6 -25.6°
Reaches altitude 10° 18:59:41 10° 301° (WNW) 1,789 3.6 -26.0°
Enters shadow 19:00:35 16° 305° (NW) 1,449 3.1 -26.1°
